#timestamp,LO_Frequency,Hit,StdDev 
1540299615.8,286047001.7,N
1540299635.6,286047001.9,N
1540299655.4,286047003.8,N
1540299675.3,286047003.6,N
1540299695.1,286047002.6,N
1540299715.9,286047001.5,N
1540299735.7,286047005.6,Y
1540299755.5,286047003.9,P
1540299775.4,286047002.7,N
1540299795.2,286047000.6,N
1540299815.0,286047000.8,N
1540299815.9,286047000.8,N
1540299835.8,286046996.6,N
1540299855.6,286046997.1,N
1540299875.5,286046998.5,N
1540299895.3,286046999.3,N
1540299915.1,286046999.4,N
1540299935.9,286046998.1,N
1540299955.7,286047000.7,N
1540299975.5,286047003.6,N
1540299995.4,286047001.8,N
1540300015.2,286047004.1,N
1540300035.1,286047003.5,N
1540300036.0,286047003.5,N
1540300055.8,286047006.0,N
1540300075.6,286047005.2,N
1540300095.5,286047007.3,N
1540300115.3,286047005.8,N
1540300135.1,286047003.3,N
1540300155.9,286047005.5,N
1540300175.7,286047005.8,N
1540300195.6,286047003.1,N
1540300215.4,286047004.6,N
1540300235.2,286047003.4,N
1540300255.1,286047004.0,N
1540300256.0,286047004.0,N
1540300275.8,286047003.6,N
1540300295.6,286047002.9,N
1540300315.5,286047003.5,N
1540300335.3,286047004.3,N
1540300355.2,286047002.3,N
1540300375.9,286046999.7,N
1540300395.7,286047001.5,N
1540300415.6,286047002.4,N
1540300435.4,286047004.0,N
1540300455.2,286047005.5,N
1540300475.1,286047007.2,Y
1540300476.0,286047007.2,P
1540300495.8,286047003.1,N
1540300515.7,286047005.3,N
1540300535.5,286047003.4,N
1540300555.3,286047003.5,N
1540300575.2,286047004.1,N
1540300595.0,286047001.8,N
1540300595.9,286047001.8,N
1540300615.7,286047004.3,N
1540300635.6,286047004.0,N
1540300655.4,286047004.2,N
1540300675.3,286047004.5,Y
1540300695.1,286047000.7,P
1540300696.0,286047000.7,N
1540300715.8,286046997.7,N
1540300735.7,286046997.2,N
1540300755.5,286046995.4,N
1540300775.3,286046995.0,N
1540300795.2,286046995.5,N
1540300815.0,286046993.6,N
1540300815.9,286046993.6,N
1540300835.8,286046991.9,N
1540300855.6,286046994.8,N
1540300875.4,286046991.9,N
1540300895.3,286046990.5,N
1540300915.1,286046991.7,N
1540300935.8,286046990.9,N
1540300955.7,286046991.9,N
1540300975.5,286046990.6,N
1540300995.4,286046986.3,Y
1540301015.2,286046997.3,P
1540301035.0,286046998.3,N
1540301035.9,286046998.3,N
1540301055.8,286046998.2,N
1540301075.6,286046998.8,N
1540301095.4,286046996.5,N
1540301115.3,286046997.8,N
1540301135.1,286046995.7,Y
1540301155.9,286046997.4,P
1540301175.7,286046999.3,P
1540301195.5,286046999.3,N
1540301215.4,286046998.3,N
1540301235.2,286047000.3,N
1540301255.0,286047002.8,N
1540301255.9,286047002.8,N
1540301275.8,286047004.4,N
1540301295.6,286047006.0,N
1540301315.5,286047004.2,N
1540301335.3,286047003.8,N
1540301355.1,286047002.9,N
1540301375.9,286047006.0,N
1540301395.7,286047004.2,N
1540301415.5,286047001.5,N
1540301435.4,286047004.1,N
1540301455.2,286047004.0,N
1540301475.1,286047002.5,N
1540301476.0,286047002.5,N
1540301495.8,286047002.2,N
1540301515.6,286047000.3,N
1540301535.5,286046998.9,N
1540301555.3,286047002.0,N
1540301575.1,286047002.3,N
1540301595.9,286046999.8,N
1540301615.7,286047000.6,N
1540301635.6,286047001.9,N
1540301655.4,286047003.8,N
1540301675.2,286047005.1,N
1540301695.1,286047007.5,Y
1540301696.0,286047007.5,P
1540301715.8,286047004.5,N
1540301735.7,286047005.8,N
1540301755.5,286047005.8,N
1540301775.3,286047005.1,N
1540301795.2,286047001.6,N
1540301815.0,286047003.0,N
1540301815.9,286047003.0,N
1540301835.8,286047006.2,Y
1540301855.6,286047001.3,P
1540301875.4,286047002.6,N
1540301895.3,286047000.1,N
1540301915.1,286047001.6,N
1540301935.8,286047000.3,N
1540301955.7,286047005.3,Y
1540301975.5,286047002.3,P
1540301995.4,286047004.0,P
1540302015.2,286047001.7,N
1540302035.0,286047002.3,N
1540302035.9,286047002.3,N
1540302055.8,286047000.2,N
1540302075.6,286047002.1,N
1540302095.4,286047001.7,N
1540302115.3,286047000.9,N
1540302135.1,286047001.3,N
1540302155.8,286047002.1,N
1540302175.7,286047000.9,N
1540302195.5,286046998.4,N
1540302215.4,286046998.9,N
1540302235.2,286047001.1,N
1540302255.0,286047000.6,N
1540302255.9,286047000.6,N
1540302275.8,286047001.0,N
1540302295.6,286046999.7,N
1540302315.4,286047000.0,N
1540302335.3,286046998.4,N
1540302355.1,286046998.2,N
1540302375.9,286047000.5,N
1540302395.7,286047001.2,N
1540302415.5,286047000.2,N
1540302435.4,286047001.4,N
1540302455.2,286047002.1,N
1540302475.0,286047000.8,N
1540302475.9,286047000.8,N
1540302495.8,286046998.8,N
1540302515.6,286047000.0,N
1540302535.4,286046998.1,N
1540302555.3,286046999.8,N
1540302575.1,286047000.7,N
1540302595.9,286046999.2,N
1540302615.7,286046996.8,N
1540302635.5,286046996.3,N
1540302655.4,286046996.0,N
1540302675.2,286046995.3,N
1540302695.0,286046996.0,N
1540302695.9,286046996.0,N
1540302715.8,286046998.0,N
1540302735.6,286046995.1,N
1540302755.4,286046995.8,N
1540302775.3,286046995.7,N
1540302795.1,286046995.0,N
1540302815.9,286046997.6,N
1540302835.7,286046997.1,N
1540302855.5,286047001.1,N
1540302875.4,286047002.2,N
1540302895.2,286047001.2,N
1540302915.0,286046998.8,N
1540302915.9,286046998.8,N
1540302935.8,286046999.5,N
1540302955.6,286046999.6,N
1540302975.5,286046997.4,N
1540302995.3,286046997.4,N
1540303015.1,286046994.9,N
1540303035.9,286046997.5,N
1540303055.7,286046995.7,N
1540303075.5,286046995.3,N
1540303095.4,286046998.4,N
1540303115.2,286047001.1,N
1540303135.1,286046998.3,N
1540303136.0,286046998.3,N
1540303155.8,286046999.3,N
1540303175.6,286047000.5,N
1540303195.5,286047001.2,N
